sat.trackr.live / text

‹ back to catalog

BRO-14

NORAD 60551 · 2024-149CM

PAYLOAD ACTIVE UNKNOWN

§ Identity

Operator
Country
FR
Launch date
2024-08-16
Launch site
AFWTR
Launch vehicle
Mass (kg)
RCS (m²)

External: N2YO · Heavens-Above · Gunter

§ Orbital elements

Epoch: 2026-05-25T04:31:42.038400Z

Period
96.25 min
Inclination
97.6877°
Eccentricity
0.0006994
Mean motion
14.96125534 rev/d
Perigee alt
574.0 km
Apogee alt
583.7 km
Semi-major
6,957.0 km
B*
2.6722e-5
RAAN
221.3799°
Arg perigee
162.9959°
Mean anomaly
197.1498°
Rev number
9,655

§ Raw data

BRO-141 60551U 24149CM  26145.18868100  .00000244  00000+0  26722-4 0  99992 60551  97.6877 221.3799 0006994 162.9959 197.1498 14.96125534 96559

JSON: /api/v1/satellites/60551 · /tle

For live sub-satellite position, see the globe view (requires WebGL).

§ Visibility from observer

Set your observer location to see the next 7 days of passes ≥ 10°. The values pass through the URL so the page stays shareable.

No JS? Fill the form by hand. The geolocation button needs JavaScript.

§ Radio — SatNOGS DB

ModeDescriptionDownlinkUplink
BPSK Mode S - Transmitter 2.261 GHz
FSK AX.100 Mode 5 Mode U - FSK9k6 - Transmitter 401.790 MHz
FSK AX.100 Mode 5 Mode U - FSK4k8 - TLM (inactive) 401.735 MHz
FSK AX.100 Mode 5 Mode U - FSK9k6 - TLM (inactive) 401.735 MHz

4 transmitters · refreshed weekly from db.satnogs.org